• In Deutschland
  • Länderverzeichnis
  • Für 7 Tage
  • Wassertemperatur
  • Satellitenkarten
  • Wetterkarte
  • Widgets
  • user-avatar
    Anmelden

    Stündliche Wetter Albany

    Heute, 21 Mai, Montag

    Zeit Temperatur Niederschläge Wind Luftdruck Luftfeuchtigkeit
    00:00 +14°C° 0 mm 3 m/S 767 mmHg 52%
    01:00 +13°C° 0 mm 3 m/S 767 mmHg 52%
    02:00 +13°C° 0 mm 3 m/S 767 mmHg 52%
    03:00 +13°C° 0 mm 3 m/S 767 mmHg 53%
    04:00 +13°C° 0 mm 3 m/S 767 mmHg 54%
    05:00 +13°C° 0 mm 3 m/S 767 mmHg 54%
    06:00 +13°C° 0 mm 3 m/S 767 mmHg 54%
    07:00 +14°C° 0 mm 4 m/S 767 mmHg 54%
    08:00 +14°C° 0 mm 4 m/S 767 mmHg 54%
    09:00 +18°C° 0 mm 4 m/S 767 mmHg 49%
    10:00 +20°C° 0 mm 4 m/S 767 mmHg 44%
    11:00 +23°C° 0 mm 5 m/S 767 mmHg 38%
    12:00 +25°C° 0 mm 4 m/S 766 mmHg 36%
    13:00 +25°C° 0 mm 4 m/S 766 mmHg 34%
    14:00 +26°C° 0 mm 3 m/S 765 mmHg 32%
    15:00 +25°C° 0 mm 3 m/S 765 mmHg 36%
    16:00 +22°C° 0 mm 3 m/S 765 mmHg 39%
    17:00 +21°C° 0 mm 3 m/S 765 mmHg 43%
    18:00 +19°C° 0 mm 3 m/S 765 mmHg 45%
    19:00 +18°C° 0 mm 3 m/S 765 mmHg 47%
    20:00 +17°C° 0 mm 3 m/S 766 mmHg 50%
    21:00 +17°C° 0 mm 3 m/S 765 mmHg 50%
    22:00 +16°C° 0 mm 3 m/S 765 mmHg 50%
    23:00 +15°C° 0 mm 4 m/S 765 mmHg 50%

    Morgen, 22 Mai, Dienstag

    Zeit Temperatur Niederschläge Wind Luftdruck Luftfeuchtigkeit
    00:00 +15°C° 0 mm 4 m/S 765 mmHg 50%
    01:00 +14°C° 0 mm 4 m/S 765 mmHg 50%
    02:00 +14°C° 0 mm 4 m/S 765 mmHg 51%
    03:00 +14°C° 0 mm 4 m/S 765 mmHg 50%
    04:00 +14°C° 0 mm 4 m/S 765 mmHg 50%
    05:00 +14°C° 0 mm 4 m/S 765 mmHg 50%
    06:00 +14°C° 0 mm 5 m/S 765 mmHg 50%
    07:00 +14°C° 0 mm 5 m/S 765 mmHg 49%
    08:00 +15°C° 0 mm 5 m/S 765 mmHg 48%
    09:00 +17°C° 0 mm 5 m/S 765 mmHg 44%
    10:00 +20°C° 0 mm 5 m/S 765 mmHg 39%
    11:00 +23°C° 0 mm 5 m/S 764 mmHg 34%
    12:00 +25°C° 0 mm 4 m/S 764 mmHg 33%
    13:00 +26°C° 0 mm 3 m/S 763 mmHg 31%
    14:00 +27°C° 0 mm 2 m/S 762 mmHg 29%
    15:00 +25°C° 0 mm 2 m/S 762 mmHg 32%
    16:00 +23°C° 0 mm 2 m/S 762 mmHg 36%
    17:00 +21°C° 0 mm 2 m/S 762 mmHg 39%
    18:00 +20°C° 0 mm 2 m/S 762 mmHg 41%
    19:00 +19°C° 0 mm 2 m/S 763 mmHg 43%
    20:00 +18°C° 0 mm 3 m/S 763 mmHg 44%
    21:00 +17°C° 0 mm 3 m/S 763 mmHg 45%
    22:00 +17°C° 0 mm 3 m/S 763 mmHg 45%
    23:00 +17°C° 0 mm 3 m/S 763 mmHg 46%

    übermorgen, 23 Mai, Mittwoch

    Zeit Temperatur Niederschläge Wind Luftdruck Luftfeuchtigkeit
    00:00 +16°C° 0 mm 3 m/S 763 mmHg 45%
    01:00 +15°C° 0 mm 4 m/S 763 mmHg 45%
    02:00 +15°C° 0 mm 4 m/S 762 mmHg 45%
    03:00 +15°C° 0 mm 4 m/S 762 mmHg 44%
    04:00 +15°C° 0 mm 4 m/S 762 mmHg 44%
    05:00 +15°C° 0 mm 4 m/S 762 mmHg 43%
    06:00 +15°C° 0 mm 4 m/S 762 mmHg 42%
    07:00 +15°C° 0 mm 4 m/S 762 mmHg 41%
    08:00 +16°C° 0 mm 5 m/S 762 mmHg 40%
    09:00 +19°C° 0 mm 5 m/S 762 mmHg 36%
    10:00 +21°C° 0 mm 5 m/S 762 mmHg 32%
    11:00 +25°C° 0 mm 5 m/S 762 mmHg 28%
    12:00 +26°C° 0 mm 4 m/S 761 mmHg 27%
    13:00 +26°C° 0 mm 4 m/S 760 mmHg 25%
    14:00 +27°C° 0 mm 4 m/S 760 mmHg 24%
    15:00 +26°C° 0 mm 3 m/S 760 mmHg 27%
    16:00 +24°C° 0 mm 3 m/S 760 mmHg 29%
    17:00 +22°C° 0 mm 3 m/S 760 mmHg 31%
    18:00 +21°C° 0 mm 3 m/S 760 mmHg 33%
    19:00 +20°C° 0 mm 3 m/S 760 mmHg 34%
    20:00 +19°C° 0 mm 4 m/S 760 mmHg 35%
    21:00 +18°C° 0 mm 4 m/S 760 mmHg 34%
    22:00 +18°C° 0 mm 4 m/S 760 mmHg 34%
    23:00 +18°C° 0 mm 4 m/S 760 mmHg 33%

    24 Mai, Donnerstag

    Zeit Temperatur Niederschläge Wind Luftdruck Luftfeuchtigkeit
    00:00 +18°C° 0 mm 4 m/S 759 mmHg 32%
    01:00 +17°C° 0 mm 5 m/S 758 mmHg 32%
    02:00 +17°C° 0 mm 5 m/S 758 mmHg 32%
    03:00 +17°C° 0 mm 5 m/S 758 mmHg 31%
    04:00 +17°C° 0 mm 5 m/S 757 mmHg 31%
    05:00 +17°C° 0 mm 6 m/S 757 mmHg 30%
    06:00 +17°C° 0 mm 6 m/S 757 mmHg 30%
    07:00 +18°C° 0 mm 7 m/S 757 mmHg 30%
    08:00 +18°C° 0 mm 7 m/S 757 mmHg 30%
    09:00 +21°C° 0 mm 7 m/S 757 mmHg 28%
    10:00 +23°C° 0 mm 8 m/S 756 mmHg 25%
    11:00 +26°C° 0 mm 8 m/S 756 mmHg 23%
    12:00 +27°C° 0 mm 7 m/S 755 mmHg 23%
    13:00 +28°C° 0 mm 7 m/S 755 mmHg 23%
    14:00 +28°C° 0 mm 6 m/S 754 mmHg 23%
    15:00 +27°C° 0 mm 6 m/S 754 mmHg 25%
    16:00 +26°C° 0 mm 5 m/S 754 mmHg 27%
    17:00 +25°C° 0 mm 4 m/S 753 mmHg 29%
    18:00 +25°C° 0 mm 5 m/S 753 mmHg 27%
    19:00 +24°C° 0 mm 6 m/S 753 mmHg 26%
    20:00 +24°C° 0 mm 7 m/S 752 mmHg 24%
    21:00 +24°C° 0 mm 7 m/S 752 mmHg 24%
    22:00 +24°C° 0 mm 8 m/S 751 mmHg 23%
    23:00 +24°C° 0 mm 8 m/S 750 mmHg 22%

    25 Mai, Freitag

    Zeit Temperatur Niederschläge Wind Luftdruck Luftfeuchtigkeit
    00:00 +24°C° 0 mm 9 m/S 749 mmHg 21%
    01:00 +24°C° 0 mm 9 m/S 748 mmHg 21%
    02:00 +24°C° 0 mm 9 m/S 747 mmHg 20%
    03:00 +23°C° 0,1 mm 8 m/S 746 mmHg 24%
    04:00 +22°C° 0,1 mm 8 m/S 745 mmHg 29%
    05:00 +22°C° 0,1 mm 7 m/S 744 mmHg 33%
    06:00 +20°C° 0,8 mm 8 m/S 744 mmHg 43%
    07:00 +18°C° 0,8 mm 10 m/S 743 mmHg 54%
    08:00 +16°C° 0,8 mm 11 m/S 743 mmHg 65%
    09:00 +16°C° 0,6 mm 11 m/S 743 mmHg 69%
    10:00 +16°C° 0,6 mm 10 m/S 743 mmHg 74%
    11:00 +16°C° 0,6 mm 10 m/S 742 mmHg 78%
    12:00 +16°C° 0,7 mm 10 m/S 742 mmHg 76%
    13:00 +14°C° 0,7 mm 10 m/S 742 mmHg 74%
    14:00 +14°C° 0,7 mm 10 m/S 742 mmHg 71%
    15:00 +13°C° 0,2 mm 10 m/S 743 mmHg 71%
    16:00 +13°C° 0,2 mm 9 m/S 744 mmHg 71%
    17:00 +12°C° 0,2 mm 9 m/S 744 mmHg 71%
    18:00 +12°C° 0,2 mm 10 m/S 745 mmHg 70%
    19:00 +12°C° 0,2 mm 10 m/S 745 mmHg 69%
    20:00 +11°C° 0,2 mm 10 m/S 746 mmHg 69%
    21:00 +11°C° 0,2 mm 11 m/S 746 mmHg 68%
    22:00 +12°C° 0,2 mm 11 m/S 746 mmHg 68%
    23:00 +12°C° 0,2 mm 11 m/S 746 mmHg 67%

    26 Mai, Samstag

    Zeit Temperatur Niederschläge Wind Luftdruck Luftfeuchtigkeit
    00:00 +12°C° 0,3 mm 11 m/S 746 mmHg 68%
    01:00 +12°C° 0,3 mm 11 m/S 746 mmHg 68%
    02:00 +12°C° 0,3 mm 11 m/S 746 mmHg 69%
    03:00 +12°C° 0,3 mm 11 m/S 747 mmHg 69%
    04:00 +12°C° 0,3 mm 11 m/S 747 mmHg 69%
    05:00 +12°C° 0,3 mm 11 m/S 747 mmHg 69%
    06:00 +12°C° 0,2 mm 11 m/S 748 mmHg 69%
    07:00 +12°C° 0,2 mm 11 m/S 749 mmHg 68%
    08:00 +12°C° 0,2 mm 11 m/S 750 mmHg 68%
    09:00 +13°C° 0,1 mm 11 m/S 751 mmHg 65%
    10:00 +13°C° 0,1 mm 11 m/S 751 mmHg 62%
    11:00 +14°C° 0,1 mm 11 m/S 752 mmHg 59%
    12:00 +14°C° 0,1 mm 11 m/S 752 mmHg 59%
    13:00 +16°C° 0,1 mm 10 m/S 753 mmHg 58%
    14:00 +16°C° 0,1 mm 10 m/S 753 mmHg 58%
    15:00 +16°C° 0,1 mm 10 m/S 753 mmHg 62%
    16:00 +16°C° 0,1 mm 9 m/S 754 mmHg 67%
    17:00 +15°C° 0,1 mm 9 m/S 755 mmHg 72%
    18:00 +15°C° 0,1 mm 8 m/S 755 mmHg 74%
    19:00 +15°C° 0,1 mm 8 m/S 756 mmHg 77%
    20:00 +15°C° 0,1 mm 8 m/S 757 mmHg 80%
    21:00 +15°C° 0,2 mm 8 m/S 757 mmHg 81%
    22:00 +16°C° 0,2 mm 7 m/S 757 mmHg 82%
    23:00 +16°C° 0,2 mm 7 m/S 758 mmHg 83%
    Mehr zeigen